#timestamp,LO_Frequency,Hit,StdDev 
1619222415.4,286047002.1,N
1619222435.2,286046999.9,N
1619222455.1,286046998.3,N
1619222456.0,286046998.3,N
1619222475.8,286046998.4,N
1619222495.6,286047000.5,N
1619222515.5,286047002.3,N
1619222535.3,286047000.9,N
1619222555.1,286047000.6,N
1619222575.9,286046998.3,N
1619222595.7,286046999.0,N
1619222615.6,286046998.1,N
1619222635.4,286047000.9,N
1619222655.2,286047002.5,N
1619222675.1,286047002.5,N
1619222676.0,286047002.5,N
1619222695.8,286047001.7,N
1619222715.6,286047003.5,N
1619222735.5,286047001.7,N
1619222755.3,286047001.3,N
1619222775.2,286047002.7,N
1619222795.9,286047004.4,N
1619222815.7,286047002.0,N
1619222835.6,286047001.3,N
1619222855.4,286047003.7,N
1619222875.2,286047001.3,N
1619222895.1,286047001.3,N
1619222896.0,286047001.3,N
1619222915.8,286047003.0,N
1619222935.7,286047003.8,N
1619222955.5,286047005.5,Y
1619222975.3,286047003.8,P
1619222995.2,286047003.0,N
1619223015.0,286047004.3,P
1619223015.9,286047004.3,Y
1619223035.7,286047001.1,P
1619223055.6,286046998.9,N
1619223075.4,286046997.3,N
1619223095.3,286046997.5,N
1619223115.1,286046995.5,N
1619223116.0,286046995.5,N
1619223135.8,286046997.6,N
1619223155.7,286046997.6,N
1619223175.5,286046995.3,N
1619223195.3,286046997.2,N
1619223215.2,286046995.4,N
1619223235.0,286046997.6,N
1619223235.9,286046997.6,N
1619223255.8,286046995.5,N
1619223275.6,286046995.8,N
1619223295.4,286046996.3,N
1619223315.3,286046993.5,Y
1619223335.1,286046996.5,P
1619223355.8,286046998.4,P
1619223375.7,286047000.4,N
1619223395.5,286047000.3,N
1619223415.4,286047000.9,N
1619223435.2,286046999.3,N
1619223455.0,286047000.8,N
1619223455.9,286047000.8,N
1619223475.8,286046999.4,N
1619223495.6,286046998.2,N
1619223515.4,286046998.9,N
1619223535.3,286046997.0,N
1619223555.1,286046996.8,N
1619223575.9,286046997.1,N
1619223595.7,286046997.4,N
1619223615.5,286046998.1,N
1619223635.4,286046999.0,N
1619223655.2,286046998.1,N
1619223675.0,286047001.1,N
1619223675.9,286047001.1,N
1619223695.8,286047000.2,N
1619223715.6,286047001.0,N
1619223735.4,286046998.2,N
1619223755.3,286047001.2,N
1619223775.1,286047000.9,N
1619223795.9,286046998.5,N
1619223815.7,286046998.3,N
1619223835.5,286046999.1,N
1619223855.4,286047000.9,N
1619223875.2,286046998.3,N
1619223895.0,286047000.5,N
1619223896.0,286047000.5,N
1619223915.8,286046998.6,N
1619223935.6,286047001.0,N
1619223955.5,286047002.2,N
1619223975.3,286047001.6,N
1619223995.1,286047002.0,N
1619224015.9,286047001.9,N
1619224035.7,286047001.9,N
1619224055.5,286047001.3,N
1619224075.4,286047002.1,N
1619224095.2,286047001.9,N
1619224115.1,286047001.5,N
1619224116.0,286047001.5,N
1619224135.8,286047003.5,N
1619224155.6,286047003.6,N
1619224175.5,286047003.8,N
1619224195.3,286047003.8,N
1619224215.1,286047003.3,N
1619224235.9,286047005.4,Y
1619224255.7,286047003.7,P
1619224275.6,286047001.6,N
1619224295.4,286047001.7,N
1619224315.2,286047001.3,N
1619224335.1,286047002.5,N
1619224336.0,286047002.5,N
1619224355.8,286047000.1,N
1619224375.7,286046998.1,N
1619224395.5,286047002.8,N
1619224415.3,286047004.0,N
1619224435.2,286047004.0,N
1619224455.0,286047004.3,N
1619224455.9,286047004.3,N
1619224475.7,286047000.5,N
1619224495.6,286047000.6,N
1619224515.4,286047002.5,N
1619224535.3,286047000.5,N
1619224555.1,286046998.3,N
1619224556.0,286046998.3,N
1619224575.8,286047001.0,N
1619224595.7,286047002.3,N
1619224615.5,286046998.5,N
1619224635.3,286047000.0,N
1619224655.2,286047000.8,N
1619224675.0,286046998.4,N
1619224675.9,286046998.4,N
1619224695.8,286047000.7,N
1619224715.6,286047000.7,N
1619224735.4,286046999.2,N
1619224755.3,286046999.3,N
1619224775.1,286046998.4,N
1619224795.8,286047000.0,N
1619224815.7,286047000.6,N
1619224835.5,286046998.9,N
1619224855.4,286046999.2,N
1619224875.2,286046999.2,N
1619224895.0,286046996.8,N
1619224895.9,286046996.8,N
1619224915.8,286046998.9,N
1619224935.6,286047000.4,N
1619224955.4,286046999.1,N
1619224975.3,286046998.3,N
1619224995.1,286046999.6,N
1619225015.9,286046999.5,N
1619225035.7,286046996.8,N
1619225055.5,286046997.9,N
1619225075.4,286046997.7,N
1619225095.2,286046999.6,N
1619225115.0,286046997.7,N
1619225116.0,286046997.7,N
1619225135.8,286046999.3,N
1619225155.6,286046997.2,N
1619225175.5,286046997.4,N
1619225195.3,286046999.6,N
1619225215.1,286046997.1,N
1619225235.9,286046995.0,Y
1619225255.7,286046998.1,P
1619225275.6,286046998.7,P
1619225295.4,286046997.0,P
1619225315.2,286046997.3,Y
1619225335.1,286047000.1,P
1619225336.0,286047000.1,N
1619225355.8,286047000.7,N
1619225375.6,286046996.6,Y
1619225395.5,286046998.5,P
1619225415.3,286046999.3,N
1619225435.2,286047001.2,N
1619225455.9,286046999.4,N
1619225475.7,286046999.1,N
1619225495.6,286046998.0,N
1619225515.4,286046995.3,Y
1619225535.2,286046997.0,P
1619225555.1,286046997.0,N
1619225556.0,286046997.0,N
1619225575.8,286046995.0,Y
1619225595.7,286046999.1,P
1619225615.5,286046998.8,N
1619225635.3,286047000.9,N
1619225655.2,286046999.9,N
1619225675.0,286047002.8,N
1619225675.9,286047002.8,N
1619225695.8,286047002.2,N
1619225715.6,286047000.2,N
1619225735.4,286046998.5,N
1619225755.3,286046998.3,N
1619225775.1,286046998.7,N
1619225795.8,286046998.8,N
1619225815.7,286047001.2,N
1619225835.5,286047002.7,N
1619225855.4,286046999.7,N
1619225875.2,286047000.2,N
1619225895.0,286047000.4,N
1619225895.9,286047000.4,N
1619225915.8,286047000.2,N
1619225935.6,286047000.2,N
1619225955.4,286047000.2,N
1619225975.3,286047004.4,Y
1619225995.1,286047002.8,P
